Wind_Speed
46 47 47 48 49 48 48 49 49 48 48 48 48 48 49 48 48 49 49 49 49 49 49 50 50 50 50 51 51 50 49 49 48 49 49 49 49 49
46 46 47 47 48 49 48 48 48 48 47 47 47 47 47 47 48 48 48 48 48 48 48 49 49 49 49 50 50 49 48 48 48 48 48 48 48 48
46 46 46 46 46 47 48 48 48 48 47 46 46 47 47 47 47 47 47 46 46 46 47 47 49 50 50 49 49 48 48 47 47 47 46 46 47 46
45 45 45 46 46 46 46 46 46 47 46 46 45 45 46 46 45 44 44 44 44 45 45 46 47 47 47 47 47 47 47 46 47 47 46 46 46 45
43 43 44 44 45 45 45 44 44 44 43 43 43 43 43 42 42 42 42 42 42 42 43 44 44 44 44 44 44 45 45 45 46 45 45 44 43 43
41 41 42 42 42 42 42 42 42 41 40 40 40 40 40 40 40 40 40 40 41 41 41 41 41 41 41 42 43 44 43 43 44 43 42 42 41 40
40 40 40 40 40 40 40 40 40 39 39 38 39 39 39 40 39 39 39 39 39 39 39 39 39 39 39 40 40 40 40 41 40 40 40 39 38 38
38 37 37 38 38 38 37 37 37 37 37 37 37 37 37 37 37 38 38 38 38 38 38 37 38 37 37 37 37 37 37 37 37 37 37 37 37 37
36 36 36 36 36 35 35 35 35 34 34 34 34 34 35 36 36 37 37 37 37 37 37 37 37 37 36 36 35 35 35 34 34 35 34 34 35 34
34 34 35 34 34 34 34 33 33 33 33 33 32 33 33 34 35 36 36 36 36 36 36 36 36 35 34 34 34 33 32 31 31 31 31 31 31 31
32 32 33 33 33 33 33 33 33 32 32 32 31 31 32 33 34 34 34 34 34 34 35 34 34 33 32 32 32 31 30 29 29 29 29 29 30 30
30 30 31 31 31 31 31 31 31 31 31 30 30 31 31 31 32 32 33 33 33 33 33 32 31 30 29 30 29 28 28 27 27 27 28 28 28 28
28 28 30 30 29 29 30 30 30 30 29 29 29 30 30 30 30 31 32 32 32 31 31 31 29 28 27 26 26 26 26 26 27 27 26 26 26 27
27 27 28 28 28 29 29 29 29 29 29 29 29 29 29 29 29 29 30 30 30 30 29 28 27 26 25 25 24 25 25 26 26 26 25 25 25 25
25 25 25 26 26 27 27 27 28 28 28 28 28 29 29 29 29 28 28 27 28 28 27 26 25 24 24 23 23 23 23 24 24 24 23 23 22 22
23 23 24 24 24 25 25 25 25 25 26 26 27 28 28 28 27 26 26 25 25 25 24 23 23 22 22 21 21 21 21 22 22 22 22 21 21 21
21 22 23 23 23 23 23 24 24 24 25 26 26 26 26 26 25 25 24 23 22 21 21 21 20 20 20 20 20 19 19 19 19 19 19 20 20 20
20 20 20 21 21 21 22 23 23 23 24 24 24 24 24 24 23 22 21 19 19 18 18 18 18 18 18 18 18 17 17 16 16 17 18 18 17 18
19 19 19 19 19 20 20 21 21 22 22 22 22 22 21 21 20 19 18 17 16 16 16 17 17 16 16 16 16 17 16 16 16 16 16 16 16 16
17 17 17 17 18 18 19 19 20 20 19 19 19 19 19 18 18 17 16 15 15 15 15 15 15 15 15 15 15 15 15 15 15 15 15 15 15 15
15 15 16 16 16 17 17 17 17 17 17 17 17 17 16 16 16 15 14 14 14 14 14 14 14 14 14 14 14 14 14 14 14 15 15 14 14 14
14 15 15 15 16 16 16 15 15 14 14 14 14 14 14 13 13 13 13 13 12 12 13 13 13 13 13 13 13 12 12 12 13 12 12 12 12 11
13 13 13 13 13 13 13 13 13 13 12 12 12 12 11 11 11 11 11 11 11 11 11 11 11 11 11 11 10 9 10 10 10 9 9 9 9 9
Wind_Direction
269 269 269 269 269 269 270 270 269 269 268 267 268 269 269 270 270 270 271 272 272 271 271 272 272 271 271 271 271 272 271 271 272 271 270 270 270 270
268 269 269 270 270 270 271 271 270 270 269 267 267 268 268 269 270 270 271 272 273 273 273 273 272 271 271 272 271 271 270 271 271 272 270 269 269 269
268 268 269 270 270 271 271 271 271 270 269 268 268 267 268 269 270 271 272 273 273 274 274 273 273 273 271 271 270 270 269 270 270 271 271 270 269 269
269 269 270 270 271 271 272 272 272 271 270 268 268 268 269 269 271 271 272 273 274 274 275 275 275 273 271 269 270 269 268 269 270 270 270 271 271 270
270 269 270 271 270 271 272 271 271 271 270 268 267 268 268 269 270 271 272 273 275 276 276 277 276 275 272 270 270 269 269 269 269 269 270 270 270 269
270 270 270 271 271 271 270 269 269 269 269 268 267 268 268 269 270 271 272 275 276 277 278 278 278 277 275 273 271 269 269 268 269 269 269 269 268 267
270 269 269 270 270 270 270 269 268 268 268 268 268 267 268 269 270 271 273 274 276 278 279 279 278 277 277 275 273 271 269 268 269 268 268 268 266 266
268 268 268 269 269 270 270 269 267 267 267 268 268 268 268 269 270 272 274 275 276 277 278 278 278 278 278 277 275 273 272 270 268 267 267 266 265 264
267 267 267 268 268 269 269 268 268 268 269 270 269 270 270 270 271 272 274 275 277 277 277 278 279 279 278 277 276 275 274 271 269 266 266 266 266 264
266 266 266 267 268 268 268 269 270 269 270 270 270 271 272 272 273 274 275 277 278 279 279 279 279 279 278 276 275 275 272 271 270 268 266 265 266 264
264 265 266 266 267 268 269 270 270 269 270 269 270 271 272 274 275 276 277 278 278 279 280 280 280 277 275 275 275 274 272 269 268 267 266 266 266 265
265 265 265 266 266 267 268 270 270 270 271 271 271 272 274 276 277 278 278 278 279 278 279 280 279 277 274 273 273 273 272 269 267 266 266 266 266 264
264 265 265 266 267 267 269 269 270 270 270 271 271 273 275 277 279 280 280 280 279 278 278 278 278 276 274 272 271 271 270 269 267 267 268 268 266 263
263 264 265 266 267 267 269 269 269 269 269 270 271 273 275 278 280 282 282 281 279 279 279 278 276 274 273 272 270 271 269 267 266 267 267 268 266 263
265 265 266 268 269 269 269 270 270 270 270 271 273 274 277 278 280 282 282 281 280 279 279 276 274 272 272 272 270 269 268 267 267 265 264 265 264 261
265 266 266 268 269 269 270 271 272 271 272 273 274 276 277 278 279 281 281 282 281 279 277 273 272 270 270 271 270 268 268 267 266 265 262 263 262 261
265 265 267 268 270 271 273 273 273 273 274 275 275 276 277 277 277 278 279 280 278 276 273 270 268 268 268 269 269 268 267 266 265 264 262 261 260 259
267 267 267 268 270 272 275 275 275 275 276 277 276 276 276 276 276 276 276 276 274 272 270 268 267 267 268 268 267 266 266 264 262 262 261 262 262 260
268 268 269 270 270 272 274 276 276 276 277 277 277 276 275 274 273 272 272 271 270 272 271 269 266 265 267 268 267 266 264 261 260 260 261 261 260 258
268 269 270 271 271 274 277 277 277 276 276 276 276 275 273 271 270 269 267 267 269 271 271 269 266 266 266 267 267 266 264 262 260 260 260 260 258 255
268 270 272 274 275 277 279 279 278 277 277 275 274 273 272 270 268 266 264 265 267 268 270 269 267 266 268 267 266 265 264 262 261 260 257 253 249 246
267 272 276 278 279 280 279 277 277 278 277 275 273 272 270 267 265 264 265 266 266 267 268 269 268 265 265 265 265 261 260 260 260 258 254 247 242 237
268 272 277 281 282 280 278 277 278 279 279 277 273 269 266 263 263 263 265 265 265 266 268 269 268 267 264 262 260 256 254 255 254 250 246 240 236 231
Height
5632 5632 5632 5632 5631 5631 5631 5631 5631 5631 5631 5631 5630 5629 5629 5629 5629 5628 5628 5627 5627 5626 5625 5625 5624 5623 5622 5622 5621 5621 5620 5620 5620 5619 5619 5619 5619 5619
5619 5619 5619 5619 5619 5618 5618 5618 5618 5618 5618 5618 5617 5617 5616 5616 5615 5615 5615 5614 5614 5613 5612 5611 5610 5609 5608 5607 5607 5607 5606 5606 5606 5606 5605 5605 5605 5605
5607 5607 5607 5606 5606 5606 5606 5605 5605 5605 5605 5606 5605 5604 5604 5603 5603 5602 5602 5601 5601 5600 5599 5597 5596 5595 5594 5593 5593 5593 5593 5593 5593 5593 5592 5592 5592 5592
5594 5594 5594 5594 5594 5593 5593 5593 5592 5592 5592 5593 5593 5592 5592 5591 5591 5590 5589 5589 5588 5587 5586 5584 5583 5581 5580 5580 5580 5580 5579 5580 5580 5580 5580 5580 5580 5579
5582 5582 5582 5582 5581 5581 5581 5580 5580 5580 5580 5580 5580 5580 5580 5579 5579 5579 5578 5577 5576 5575 5573 5572 5570 5568 5567 5567 5567 5566 5566 5567 5567 5567 5566 5566 5566 5566
5570 5570 5570 5570 5570 5569 5569 5569 5569 5568 5568 5568 5569 5569 5569 5568 5568 5568 5567 5566 5565 5564 5562 5560 5558 5557 5555 5555 5554 5554 5554 5554 5554 5554 5554 5554 5554 5554
5558 5558 5558 5558 5558 5558 5558 5558 5557 5558 5558 5558 5558 5558 5558 5558 5558 5557 5557 5556 5554 5553 5551 5550 5548 5546 5545 5543 5542 5542 5541 5542 5542 5542 5542 5542 5543 5543
5547 5547 5547 5547 5547 5547 5547 5547 5547 5548 5548 5548 5548 5548 5548 5547 5547 5547 5546 5546 5545 5544 5542 5540 5538 5536 5535 5533 5532 5531 5531 5531 5531 5531 5531 5531 5532 5533
5537 5537 5537 5537 5537 5537 5537 5538 5538 5538 5538 5538 5538 5538 5538 5537 5537 5537 5536 5535 5534 5532 5531 5530 5528 5527 5525 5523 5522 5521 5521 5521 5521 5521 5521 5521 5521 5522
5526 5527 5527 5527 5527 5528 5528 5529 5529 5528 5528 5529 5529 5529 5528 5527 5527 5526 5525 5524 5524 5522 5520 5520 5518 5516 5515 5513 5512 5512 5511 5511 5511 5511 5511 5512 5512 5513
5516 5517 5517 5518 5518 5518 5519 5519 5519 5519 5519 5519 5519 5519 5518 5518 5517 5516 5515 5515 5514 5512 5510 5509 5508 5507 5505 5504 5503 5502 5502 5502 5502 5503 5503 5503 5504 5505
5507 5507 5508 5508 5509 5509 5510 5510 5510 5510 5510 5510 5510 5510 5509 5509 5507 5507 5506 5504 5503 5503 5501 5500 5498 5497 5497 5496 5495 5494 5494 5494 5494 5495 5495 5495 5496 5496
5499 5499 5500 5500 5500 5501 5501 5501 5501 5501 5501 5501 5501 5501 5500 5500 5498 5497 5496 5495 5494 5493 5491 5490 5489 5488 5488 5488 5487 5487 5486 5486 5487 5487 5487 5487 5488 5489
5491 5492 5492 5492 5492 5492 5492 5493 5492 5493 5493 5493 5492 5492 5492 5491 5490 5488 5487 5485 5484 5483 5482 5481 5481 5480 5480 5480 5480 5479 5479 5479 5479 5480 5480 5480 5481 5481
5484 5484 5484 5484 5484 5484 5484 5484 5484 5484 5484 5484 5484 5484 5483 5482 5481 5480 5478 5477 5476 5475 5474 5473 5473 5472 5472 5473 5473 5472 5472 5472 5472 5473 5473 5474 5474 5474
5476 5477 5477 5477 5477 5477 5477 5477 5476 5476 5476 5476 5475 5475 5474 5473 5473 5472 5471 5469 5468 5467 5466 5465 5465 5465 5465 5466 5466 5466 5465 5465 5466 5466 5467 5467 5468 5468
5470 5470 5470 5470 5470 5470 5470 5469 5469 5468 5468 5468 5467 5467 5466 5465 5464 5464 5463 5462 5461 5460 5459 5459 5459 5459 5459 5459 5460 5460 5459 5459 5460 5460 5461 5462 5462 5462
5464 5464 5464 5464 5464 5464 5463 5462 5462 5461 5461 5460 5460 5459 5458 5458 5457 5457 5456 5456 5455 5454 5454 5454 5454 5454 5454 5454 5454 5454 5454 5454 5454 5454 5455 5456 5457 5457
5459 5459 5459 5459 5458 5457 5457 5456 5455 5455 5454 5453 5452 5452 5451 5451 5451 5451 5450 5450 5450 5449 5449 5449 5448 5449 5449 5450 5449 5449 5449 5449 5450 5450 5450 5451 5451 5452
5454 5454 5454 5453 5452 5452 5451 5450 5449 5448 5447 5447 5446 5446 5445 5445 5445 5445 5445 5445 5445 5445 5444 5444 5444 5444 5444 5445 5445 5445 5444 5445 5445 5445 5446 5446 5446 5447
5449 5449 5449 5448 5447 5446 5445 5444 5443 5442 5442 5441 5440 5440 5440 5440 5440 5440 5440 5441 5441 5441 5440 5440 5440 5440 5440 5441 5441 5441 5441 5440 5441 5441 5441 5442 5442 5443
5445 5445 5444 5443 5442 5441 5440 5440 5439 5438 5437 5436 5436 5435 5435 5436 5436 5436 5437 5437 5437 5437 5437 5436 5436 5436 5437 5437 5437 5437 5438 5437 5437 5437 5438 5439 5439 5440
5441 5441 5440 5439 5438 5437 5436 5436 5435 5434 5433 5433 5432 5432 5432 5432 5432 5433 5433 5433 5433 5433 5433 5433 5433 5433 5433 5434 5434 5434 5434 5435 5435 5435 5435 5436 5437 5438